Location: ??????
(38.1303°N, 24.0039°E)
Time: 05:30:19
(UTC+00:00)

Cosmos 1151 Rocket - Pass Details

Date: 20 June 2021
Orbit: 592 x 616 km, 82.5° (Epoch: 25 July)

Event Time Altitude Azimuth Distance (km) Brightness Sun altitude
Rises 01:13:33 0° 351° (N) 2,838 7.1 -16.9°
Reaches altitude 10° 01:15:46 10° 351° (N) 1,930 6.1 -16.6°
Maximum altitude 01:20:02 82° 265° (W) 603 2.9 -16.1°
Enters shadow 01:23:04 19° 178° (S) 1,442 4.5 -15.7°
